Temperature
20 21 21 22 22 21 20 18 18 18 17 17 16 16 16 17 17 16 16 16 16 16 16 15 15 15 15 14 14 14 14 13 13 13 13 13 13 13 12 12 12 12 12 12
21 21 21 22 21 21 20 20 19 18 17 17 17 17 17 17 16 16 16 16 16 15 15 15 15 15 14 14 14 14 13 13 13 13 12 12 12 12 12 12 12 12 12 12
19 20 21 20 21 21 20 20 19 18 17 16 15 16 16 16 17 16 16 16 16 15 15 15 14 14 14 14 14 13 13 13 12 12 12 12 12 12 12 11 11 11 11 11
17 19 20 19 20 21 20 20 19 19 17 17 17 18 18 18 17 17 16 16 15 15 15 14 14 14 14 13 13 13 13 12 12 12 12 11 11 11 11 11 11 11 11 11
16 18 18 19 20 20 20 19 19 18 17 17 18 17 16 17 17 17 17 16 16 15 15 14 14 13 13 13 13 13 12 12 12 11 11 11 11 11 10 10 10 10 10 10
16 18 18 19 20 21 20 19 18 18 17 16 16 14 15 17 17 17 16 16 15 15 14 14 14 13 13 13 12 12 12 12 11 11 11 11 10 10 10 10 10 10 10 10
16 17 17 18 20 20 19 18 19 19 18 17 17 17 18 17 17 16 16 15 15 14 14 14 13 13 13 12 12 12 11 11 11 11 10 10 10 10 10 9 9 9 9 9
14 16 17 18 19 18 18 19 19 19 19 18 18 18 18 17 16 16 15 15 14 14 14 13 13 12 12 12 12 11 11 11 11 10 10 10 10 9 9 9 9 9 9 9
15 16 18 19 20 21 21 20 20 19 19 19 18 17 17 17 16 16 15 15 14 14 13 13 12 12 12 12 11 11 11 10 10 10 10 10 9 9 9 9 8 8 8 8
15 16 17 19 20 20 20 20 20 20 19 19 18 17 17 16 16 15 15 14 14 13 13 12 12 12 12 11 11 11 10 10 10 10 10 9 9 9 8 8 8 8 8 8
15 15 17 18 19 20 20 20 19 19 19 18 18 17 16 16 15 15 14 14 13 13 13 12 12 11 11 11 11 10 10 10 10 9 9 9 9 8 8 8 8 7 7 7
15 16 15 17 19 19 19 19 18 18 18 17 17 16 16 15 15 14 14 13 13 13 12 12 12 11 11 11 10 10 10 10 9 9 9 8 8 8 8 8 7 7 7 7
19 19 19 18 18 18 18 18 18 18 17 17 16 16 15 15 14 14 13 13 13 12 12 12 11 11 11 10 10 10 10 9 9 9 8 8 8 7 7 7 7 7 7 7
19 18 17 17 17 17 17 17 17 17 16 16 15 15 15 14 14 13 13 13 12 12 12 11 11 11 10 10 10 9 9 9 9 8 8 8 7 7 7 7 7 7 7 7
17 18 17 17 17 16 16 16 16 15 15 15 15 14 14 14 13 13 13 12 12 12 11 11 11 10 10 10 9 9 9 9 8 8 8 7 7 7 7 6 6 6 6 6
16 16 16 16 16 15 15 15 15 14 14 14 14 14 13 13 13 12 12 12 11 11 11 11 10 10 10 9 9 9 9 8 8 8 7 7 7 6 6 6 6 6 6 6
15 15 15 14 15 15 14 14 14 14 14 13 13 13 13 12 12 12 12 11 11 11 11 10 10 10 9 9 9 9 8 8 8 7 7 7 6 6 6 6 6 5 5 5
15 15 14 14 14 14 14 14 14 13 13 13 13 12 12 12 11 11 11 11 10 10 10 10 10 9 9 9 8 8 8 8 7 7 7 6 6 6 6 5 5 5 5 5
14 14 14 14 13 13 13 13 13 13 13 12 12 12 12 11 11 11 10 10 10 10 10 9 9 9 8 8 8 8 7 7 7 7 6 6 6 6 5 5 5 5 5 5
13 13 13 13 13 13 12 12 12 12 12 12 12 11 11 11 11 10 10 10 10 9 9 9 8 8 8 8 7 7 7 7 6 6 6 6 5 5 5 5 5 5 5 4
12 12 12 12 12 12 12 12 11 11 11 11 11 11 11 10 10 10 9 9 9 9 9 8 8 8 7 7 7 7 6 6 6 6 6 5 5 5 5 5 5 4 4 4
11 11 11 11 11 11 11 11 11 11 10 10 10 10 10 9 9 9 9 9 9 8 8 8 7 7 7 7 6 6 6 6 6 5 5 5 5 5 4 4 4 4 4 4
11 10 10 10 10 10 10 10 10 10 10 9 9 9 9 9 9 8 8 8 8 8 7 7 7 7 6 6 6 6 6 5 5 5 5 5 4 4 4 4 4 3 3 3
10 10 10 10 10 9 9 9 9 9 9 9 9 8 8 8 8 8 8 7 7 7 7 7 6 6 6 5 5 5 5 5 5 4 4 4 4 4 4 3 3 3 3 3
9 9 9 9 9 9 9 9 9 9 8 8 8 8 8 8 7 7 7 7 7 6 6 6 6 5 5 5 5 4 4 4 4 4 4 4 4 3 3 3 3 3 2 2
8 8 8 8 8 8 8 8 8 8 8 7 7 7 7 7 7 7 6 6 6 6 6 5 5 5 5 4 4 4 4 4 3 3 3 3 3 3 3 3 2 2 2 2
7 7 7 7 7 7 7 7 7 7 7 7 7 7 6 6 6 6 6 6 5 5 5 5 4 4 4 4 4 3 3 3 3 3 3 3 2 2 2 2 2 2 2 2
Wind_Speed
6 5 5 6 7 7 7 8 8 8 10 12 15 15 13 11 10 9 8 7 6 4 3 2 2 1 1 1 1 2 3 3 2 3 4 4 5 5 5 6 6 5 5 6
2 3 2 4 7 7 7 6 6 6 8 8 10 9 10 11 12 10 8 7 6 5 4 3 2 2 1 1 1 2 2 2 2 3 4 5 5 5 6 6 6 6 6 6
3 4 2 5 8 8 7 7 9 9 10 9 10 14 15 14 13 11 10 8 7 6 5 4 3 3 2 1 1 2 2 2 3 3 4 5 6 6 6 6 6 6 6 6
1 2 5 9 5 6 7 6 7 7 9 15 15 14 12 10 12 11 10 9 7 6 4 3 3 2 2 2 2 2 2 2 3 3 4 5 5 6 6 5 5 5 6 6
3 3 6 8 4 5 6 4 4 8 10 10 9 7 2 6 9 11 10 8 7 6 5 4 3 3 3 2 1 1 1 2 3 3 3 4 5 5 5 5 6 5 5 6
4 4 6 8 5 2 6 3 4 8 13 12 12 7 8 8 8 9 8 8 7 5 4 4 3 3 3 1 0 2 3 3 3 3 3 4 4 4 4 4 5 6 6 6
5 5 7 7 3 5 5 7 4 9 13 14 11 9 7 10 9 9 8 7 7 6 4 4 3 3 3 2 3 4 3 3 3 3 3 3 3 3 4 5 6 6 6 6
6 5 8 4 5 6 7 2 5 8 10 10 7 7 9 11 10 10 8 7 7 6 4 3 3 3 3 3 4 3 2 2 3 4 4 3 3 4 4 4 5 6 6 7
8 8 5 3 6 5 6 6 5 7 7 10 9 8 9 9 9 9 8 7 6 6 4 3 3 4 4 5 4 2 2 3 4 4 4 3 3 4 4 4 4 6 5 6
2 3 2 2 2 3 5 6 6 8 9 9 8 9 9 9 8 7 7 6 5 5 4 3 3 4 5 5 3 2 3 4 4 4 4 4 4 3 4 4 5 6 6 6
1 3 1 2 2 4 4 6 7 7 7 9 10 9 9 8 8 7 6 5 5 6 5 5 4 4 4 4 3 3 3 4 4 4 4 5 4 4 5 5 6 7 6 6
7 8 6 5 4 5 7 7 7 7 6 6 9 10 8 8 7 7 6 5 5 5 5 5 4 4 4 3 3 3 3 4 4 4 4 4 5 6 8 8 12 13 12 11
7 6 5 5 4 5 6 6 7 7 8 7 6 7 9 7 6 6 6 6 6 6 6 5 4 4 5 4 3 4 4 4 3 4 4 4 4 5 7 9 10 12 13 14
4 4 2 3 4 5 5 6 6 6 5 6 6 6 7 6 6 7 7 8 7 6 6 5 5 6 6 5 4 5 5 5 4 4 4 4 5 5 6 7 8 7 9 13
3 3 5 4 4 4 5 6 6 5 4 4 4 6 7 7 7 7 7 6 6 5 6 6 6 7 6 5 5 5 5 4 4 4 4 5 5 5 6 7 7 8 8 9
2 3 4 6 6 6 6 6 6 6 5 5 5 5 6 6 6 5 5 5 6 7 7 7 7 7 6 5 5 5 5 8 6 4 4 5 5 6 6 6 7 7 8 8
5 3 4 5 5 5 6 6 7 7 6 6 7 6 5 4 4 4 5 5 6 7 7 7 7 6 5 5 5 4 4 6 8 6 5 5 6 6 7 7 7 8 8 10
6 6 7 7 6 5 5 5 5 6 6 6 6 6 6 6 6 6 6 4 3 4 5 6 6 5 5 5 5 4 4 5 5 5 6 6 7 7 7 7 8 10 9 10
3 4 4 5 5 5 5 4 5 5 5 5 6 6 7 7 6 6 4 4 4 6 7 6 8 6 5 7 6 4 4 5 6 6 6 8 8 7 7 8 8 9 9 9
2 3 3 3 3 3 3 3 3 3 4 5 5 5 5 6 5 5 5 6 7 7 7 6 5 6 7 7 7 4 5 6 7 7 7 7 7 8 8 8 9 9 9 9
2 2 2 2 1 2 3 3 3 3 3 4 5 6 7 6 6 5 5 6 7 7 6 7 5 5 6 7 8 5 6 6 7 7 7 8 8 8 9 9 9 9 9 9
1 1 1 1 1 1 2 2 3 3 3 3 4 4 4 5 5 5 6 7 7 8 5 5 5 7 8 9 5 6 6 7 7 7 7 7 8 8 9 9 9 9 9 9
1 1 1 1 2 2 2 2 3 3 4 4 4 4 4 5 4 5 6 6 5 8 6 5 8 11 12 7 5 6 7 7 7 7 8 8 8 8 9 10 9 9 9 9
1 2 2 2 1 1 3 4 4 4 5 5 5 5 5 4 4 5 6 7 7 8 6 7 11 12 11 5 5 6 7 8 8 8 8 8 8 8 8 9 9 9 9 10
2 2 2 2 3 4 4 5 4 4 4 4 5 6 5 5 5 5 5 6 7 7 5 8 12 13 8 6 6 7 7 8 9 8 8 8 8 8 8 8 9 9 9 9
4 4 4 4 4 4 4 3 3 3 3 4 4 5 4 4 5 5 5 6 8 8 6 6 7 9 7 7 7 8 8 9 10 9 8 8 9 9 9 9 10 9 9 9
4 4 3 4 4 4 3 3 3 4 4 5 5 5 5 4 4 5 5 5 5 6 6 6 6 6 7 7 7 8 8 8 8 8 8 8 8 9 9 10 9 9 9 10
Wind_Direction
227 230 199 203 209 199 185 183 185 206 189 197 189 179 174 169 162 157 158 160 161 158 155 148 137 103 80 60 47 71 66 41 6 352 353 349 343 337 336 339 340 330 331 332
298 274 237 231 220 203 202 193 186 173 208 203 174 158 161 167 166 167 169 168 166 162 159 162 164 159 103 53 39 83 71 22 353 356 353 345 334 335 337 335 332 332 330 327
268 299 10 267 229 204 200 194 170 192 210 160 160 175 178 176 174 174 173 169 167 168 172 177 179 166 155 151 79 73 54 7 353 351 345 335 336 342 334 328 330 327 322 325
171 37 239 247 256 195 185 209 197 186 176 171 177 182 180 173 173 175 173 170 170 169 169 176 171 161 145 104 79 64 23 343 333 337 332 333 340 335 325 322 325 316 314 317
140 205 271 288 261 172 165 234 207 178 167 162 133 106 162 190 172 173 171 166 166 168 165 162 165 161 128 97 76 51 320 308 302 308 321 331 331 322 318 323 323 314 313 316
143 181 234 248 262 159 107 264 242 166 156 147 132 159 215 191 164 158 155 156 157 156 147 149 174 153 130 150 180 265 270 278 288 293 305 308 306 306 312 317 315 315 318 315
174 213 257 254 243 105 149 233 215 167 159 160 172 189 174 157 158 157 155 157 154 149 151 170 173 143 150 196 240 252 263 280 301 300 294 289 299 304 312 318 323 318 314 312
162 193 250 240 141 169 204 200 154 157 163 164 155 131 139 152 155 156 156 158 155 153 166 184 170 152 179 232 248 254 265 289 299 298 299 313 309 307 313 316 323 315 310 312
185 207 242 208 182 185 156 144 150 156 160 149 140 148 151 156 158 160 161 162 161 161 172 197 193 174 201 239 246 247 264 284 292 298 300 299 294 299 308 313 312 312 305 304
194 261 250 183 143 140 147 148 149 148 145 145 152 155 154 156 159 161 164 166 163 160 173 210 225 216 221 234 230 221 248 273 285 291 298 301 296 289 292 300 301 305 304 297
226 260 14 310 196 159 133 124 122 126 138 148 147 154 159 163 168 170 171 173 170 174 190 215 225 236 246 239 213 220 245 266 278 275 280 290 288 276 276 271 271 284 286 280
219 217 189 215 208 159 141 146 146 138 137 146 153 159 162 170 174 173 175 173 176 186 200 217 221 237 253 243 214 212 244 264 267 269 275 280 289 300 290 282 291 290 291 288
210 206 192 192 177 156 151 156 155 150 153 157 159 161 163 168 176 175 177 180 189 199 208 215 219 238 250 240 215 212 231 250 261 266 271 277 280 291 303 308 300 294 295 296
183 142 151 179 184 165 154 155 144 137 146 156 159 157 159 162 169 179 190 198 201 202 211 216 223 239 244 232 223 228 236 253 258 254 260 264 272 280 287 293 304 301 296 294
200 173 180 173 149 138 136 128 126 135 141 145 152 159 165 171 184 197 204 202 197 205 219 225 232 245 244 233 229 235 239 247 251 252 255 261 271 278 283 286 288 293 297 300
169 114 129 141 150 148 139 141 152 170 170 166 165 173 182 185 191 198 202 198 197 215 227 230 237 245 243 234 234 241 246 263 269 261 261 268 273 278 283 285 288 290 291 293
158 168 167 168 170 170 172 175 177 182 181 181 186 183 172 169 182 204 217 219 216 222 227 230 240 247 237 228 228 239 247 262 275 277 263 265 269 273 277 280 281 284 283 284
177 186 182 174 173 177 185 184 183 181 186 195 187 177 179 186 201 217 227 229 234 247 248 241 239 238 235 236 234 236 243 249 250 257 263 266 269 268 271 275 278 282 286 288
161 168 171 173 171 168 177 188 194 195 193 184 182 192 202 208 213 218 216 212 226 247 258 256 259 249 245 250 252 236 245 256 260 262 265 272 275 271 271 273 277 279 282 282
101 130 143 151 151 157 175 188 185 192 200 191 191 200 214 224 222 219 216 223 230 234 241 250 253 251 249 252 259 243 247 255 261 266 268 267 269 272 273 274 276 277 279 277
67 79 106 138 178 187 186 181 178 199 215 203 202 213 223 231 227 219 220 242 254 247 244 255 251 251 253 259 262 250 251 257 262 265 265 265 269 273 274 276 278 279 279 280
110 88 120 161 189 246 240 204 196 206 213 224 230 229 230 239 240 237 233 237 249 251 247 245 246 259 268 271 255 250 253 257 262 264 263 264 268 274 277 277 277 279 279 279
217 217 220 227 225 244 271 251 224 215 217 224 229 232 236 242 236 235 259 257 249 258 258 250 261 273 278 273 257 255 259 262 265 266 266 267 269 271 273 275 275 276 278 279
266 248 244 242 231 236 256 261 253 242 233 231 231 233 235 249 262 251 247 265 266 267 260 261 271 280 285 274 265 263 264 265 266 268 267 266 268 271 273 274 275 275 276 278
264 258 260 264 257 251 250 254 254 251 247 248 250 246 238 226 235 253 254 253 262 270 263 272 282 287 283 271 269 267 266 267 270 271 265 268 270 271 273 274 275 277 278 277
261 256 255 250 248 252 253 252 251 250 243 251 260 258 254 248 245 251 254 255 258 269 266 264 270 276 269 267 267 268 269 277 282 278 270 270 270 272 274 275 276 276 277 277
266 263 265 271 269 256 248 241 245 254 249 245 256 259 257 257 259 262 264 263 264 265 267 269 268 268 267 268 269 270 270 271 271 271 272 272 272 272 273 274 277 278 277 278
Height
1500 1496 1495 1496 1496 1497 1503 1509 1516 1514 1515 1511 1510 1511 1514 1517 1521 1523 1525 1526 1528 1528 1529 1529 1529 1529 1529 1529 1528 1527 1526 1525 1523 1522 1520 1519 1517 1515 1513 1510 1508 1506 1504 1502
1499 1494 1494 1495 1494 1494 1497 1499 1504 1506 1508 1502 1505 1509 1513 1516 1518 1520 1522 1524 1526 1527 1527 1527 1528 1527 1527 1527 1526 1525 1524 1523 1522 1520 1518 1516 1514 1512 1510 1508 1506 1503 1501 1499
1510 1500 1497 1503 1493 1492 1493 1492 1496 1503 1500 1499 1504 1506 1508 1511 1514 1516 1519 1521 1523 1524 1525 1525 1526 1526 1526 1525 1524 1523 1522 1521 1520 1518 1516 1514 1512 1510 1507 1505 1503 1501 1498 1496
1511 1507 1515 1498 1483 1482 1486 1486 1486 1487 1489 1492 1495 1500 1504 1507 1510 1513 1516 1518 1520 1522 1523 1523 1524 1524 1524 1523 1522 1521 1520 1519 1517 1516 1514 1512 1509 1507 1505 1502 1500 1497 1495 1493
1514 1515 1508 1492 1482 1481 1486 1488 1483 1485 1488 1492 1495 1501 1505 1506 1508 1510 1513 1515 1518 1519 1520 1521 1521 1522 1521 1521 1520 1519 1518 1516 1515 1513 1511 1509 1507 1504 1502 1500 1497 1495 1492 1490
1512 1513 1513 1492 1479 1476 1482 1491 1482 1482 1485 1490 1495 1505 1503 1503 1506 1509 1511 1514 1516 1517 1518 1519 1519 1519 1519 1518 1517 1516 1515 1514 1512 1511 1509 1506 1504 1502 1499 1497 1494 1492 1489 1487
1509 1510 1500 1482 1477 1478 1495 1491 1480 1480 1482 1486 1489 1492 1494 1499 1503 1506 1509 1511 1513 1514 1515 1516 1516 1516 1516 1515 1514 1513 1512 1511 1509 1508 1506 1504 1502 1499 1496 1494 1491 1488 1485 1483
1507 1509 1501 1477 1477 1481 1482 1477 1478 1479 1481 1484 1487 1490 1494 1497 1500 1503 1506 1508 1510 1511 1512 1513 1513 1513 1513 1512 1511 1510 1509 1508 1506 1504 1503 1501 1498 1496 1493 1490 1487 1484 1481 1478
1490 1489 1477 1474 1473 1474 1475 1476 1478 1479 1482 1484 1487 1489 1492 1495 1498 1501 1503 1505 1507 1508 1509 1510 1510 1510 1510 1509 1508 1507 1506 1504 1503 1501 1499 1497 1494 1492 1489 1486 1483 1480 1477 1474
1482 1478 1474 1473 1473 1474 1475 1476 1477 1479 1481 1483 1485 1488 1491 1494 1496 1499 1501 1502 1504 1505 1506 1506 1507 1507 1506 1506 1505 1503 1502 1500 1499 1497 1495 1493 1491 1488 1485 1483 1480 1476 1473 1470
1480 1476 1474 1473 1473 1473 1474 1475 1477 1479 1481 1482 1484 1487 1489 1491 1494 1496 1498 1499 1501 1502 1502 1503 1503 1503 1502 1502 1501 1499 1498 1496 1495 1493 1490 1488 1486 1484 1481 1479 1477 1473 1470 1467
1476 1471 1472 1471 1472 1473 1473 1474 1476 1478 1480 1482 1483 1485 1487 1489 1491 1493 1495 1496 1497 1498 1499 1499 1499 1499 1498 1498 1497 1495 1494 1492 1490 1488 1486 1483 1481 1479 1476 1475 1472 1469 1466 1464
1466 1467 1468 1468 1470 1471 1471 1473 1474 1476 1477 1479 1481 1483 1485 1487 1489 1490 1492 1493 1494 1495 1495 1495 1495 1495 1494 1493 1492 1491 1489 1487 1485 1483 1481 1479 1476 1473 1470 1468 1466 1464 1461 1458
1464 1465 1466 1467 1468 1469 1470 1471 1473 1474 1476 1477 1479 1481 1482 1484 1486 1487 1488 1489 1490 1491 1491 1491 1491 1490 1490 1489 1488 1486 1485 1483 1481 1479 1477 1474 1472 1469 1466 1462 1459 1456 1455 1452
1461 1462 1463 1464 1465 1467 1468 1469 1470 1472 1473 1475 1476 1478 1479 1481 1482 1483 1485 1486 1486 1487 1487 1487 1486 1485 1485 1484 1482 1481 1479 1477 1475 1473 1471 1469 1466 1463 1461 1457 1454 1450 1447 1445
1459 1460 1460 1461 1462 1464 1465 1466 1467 1469 1470 1472 1473 1475 1476 1477 1478 1480 1481 1481 1482 1482 1482 1481 1481 1480 1480 1478 1477 1475 1473 1472 1470 1467 1465 1463 1460 1457 1454 1451 1448 1445 1441 1438
1456 1457 1458 1459 1460 1461 1462 1463 1465 1466 1468 1469 1470 1472 1473 1474 1475 1475 1476 1477 1477 1477 1477 1476 1475 1475 1474 1473 1471 1469 1467 1465 1463 1461 1459 1456 1454 1451 1448 1445 1442 1438 1435 1432
1453 1454 1455 1456 1457 1458 1460 1461 1462 1463 1464 1466 1467 1468 1469 1470 1470 1471 1471 1472 1472 1471 1471 1471 1470 1469 1468 1466 1465 1463 1461 1459 1457 1455 1452 1450 1447 1444 1441 1438 1435 1431 1428 1425
1451 1452 1453 1454 1455 1456 1457 1458 1459 1461 1462 1463 1464 1464 1465 1465 1466 1466 1467 1467 1466 1466 1465 1465 1464 1463 1462 1460 1458 1456 1454 1452 1450 1448 1445 1443 1440 1437 1434 1431 1428 1424 1421 1417
1449 1450 1451 1452 1453 1454 1455 1456 1457 1458 1458 1459 1460 1460 1461 1461 1461 1461 1461 1461 1461 1460 1460 1459 1458 1456 1455 1453 1452 1450 1448 1445 1443 1441 1438 1435 1432 1429 1427 1424 1421 1417 1414 1410
1449 1449 1449 1450 1451 1452 1453 1453 1454 1455 1455 1455 1456 1456 1456 1456 1456 1456 1456 1455 1455 1454 1453 1452 1451 1449 1448 1446 1445 1443 1440 1438 1436 1433 1431 1428 1425 1422 1419 1416 1413 1409 1406 1402
1448 1448 1448 1448 1449 1449 1450 1451 1451 1451 1451 1452 1452 1451 1451 1451 1451 1450 1450 1449 1448 1448 1446 1445 1444 1442 1441 1439 1437 1435 1433 1431 1428 1425 1423 1420 1417 1414 1411 1408 1404 1401 1398 1394
1446 1446 1446 1446 1446 1446 1447 1447 1447 1448 1447 1447 1447 1447 1446 1446 1445 1445 1443 1443 1442 1441 1440 1438 1437 1435 1434 1432 1430 1427 1425 1423 1420 1417 1415 1412 1409 1406 1403 1399 1396 1393 1390 1386
1444 1444 1444 1444 1444 1443 1443 1443 1443 1443 1443 1443 1442 1442 1441 1440 1439 1439 1438 1437 1436 1434 1433 1431 1430 1428 1427 1424 1422 1419 1417 1415 1412 1409 1407 1404 1401 1398 1395 1391 1388 1384 1381 1378
1441 1441 1440 1440 1440 1439 1439 1438 1438 1438 1437 1437 1437 1436 1436 1435 1434 1433 1432 1431 1429 1428 1426 1425 1423 1421 1419 1417 1414 1412 1409 1407 1404 1401 1398 1395 1392 1389 1386 1383 1379 1376 1372 1369
1438 1437 1437 1436 1436 1435 1434 1434 1433 1432 1431 1431 1430 1430 1429 1428 1427 1426 1425 1424 1422 1421 1419 1417 1415 1413 1411 1409 1406 1404 1401 1398 1396 1393 1390 1387 1383 1380 1377 1374 1371 1367 1364 1360
1434 1433 1432 1432 1431 1430 1430 1429 1428 1427 1426 1425 1424 1423 1423 1422 1420 1419 1418 1417 1415 1413 1412 1410 1408 1406 1403 1401 1398 1396 1393 1390 1387 1384 1381 1378 1374 1371 1368 1365 1362 1359 1355 1352